Location: Newark
(51.0000°N, 11.4100°E)
Time: 05:21:37
(UTC+00:00)

UWE-3 - Visible Passes

Search period start: 06 December 2019 00:00
Search period end: 16 December 2019 00:00
Orbit: 586 x 682 km, 97.6° (Epoch: 05 December)

Date Brightness Start Highest point End Pass type
(mag) Time Alt. Az. Time Alt. Az. Time Alt. Az.
06 Dec ? 04:44:56 10° NNE 04:49:19 50° E 04:53:34 10° S visible
06 Dec ? 06:21:54 10° N 06:25:27 23° WNW 06:28:56 10° WSW visible
06 Dec ? 15:45:45 10° SSE 15:50:25 73° ENE 15:55:05 10° N visible
06 Dec ? 17:24:22 10° SW 17:27:21 17° W 17:30:21 10° NW visible
07 Dec ? 03:32:44 10° ENE 03:33:47 11° E 03:34:50 10° E visible
07 Dec ? 05:06:30 10° NNE 05:11:02 81° ESE 05:15:22 10° SSW visible
07 Dec ? 16:07:24 10° S 16:12:04 73° WSW 16:16:45 10° NNW visible
07 Dec ? 17:48:25 10° W 17:49:19 10° W 17:50:14 10° WNW visible
08 Dec ? 03:52:49 10° NE 03:55:44 17° E 03:58:36 10° SE visible
08 Dec ? 05:28:12 10° N 05:32:39 64° WNW 05:36:56 10° SSW visible
08 Dec ? 16:29:18 10° S 16:33:47 46° W 16:38:17 10° NNW visible
09 Dec ? 04:13:52 10° NE 04:17:37 26° E 04:21:15 10° SSE visible
09 Dec ? 05:50:01 10° N 05:54:12 40° WNW 05:58:15 10° SW visible
09 Dec ? 16:51:28 10° SSW 16:55:34 30° W 16:59:41 10° NNW visible
10 Dec ? 04:35:12 10° NNE 04:39:25 41° E 04:43:29 10° SSE visible
10 Dec ? 06:11:57 10° N 06:15:41 27° WNW 06:19:19 10° WSW visible
10 Dec ? 17:14:01 10° SW 17:17:25 20° W 17:20:49 10° NW visible
11 Dec ? 04:56:43 10° NNE 05:01:08 66° E 05:05:24 10° S visible
11 Dec ? 15:57:34 10° SSE 16:02:15 87° WSW 16:06:54 10° NNW visible
11 Dec ? 17:37:16 10° WSW 17:39:20 13° W 17:41:25 10° WNW visible
12 Dec ? 03:43:29 10° NE 03:45:44 14° E 03:47:58 10° ESE visible
12 Dec ? 05:18:21 10° N 05:22:47 78° WNW 05:27:04 10° SSW visible
12 Dec ? 16:19:21 10° S 16:23:56 56° W 16:28:29 10° NNW visible
13 Dec ? 04:04:16 10° NE 04:07:39 21° E 04:10:56 10° SE visible
13 Dec ? 05:40:07 10° N 05:44:22 48° WNW 05:48:29 10° SW visible
13 Dec ? 16:41:24 10° SSW 16:45:41 36° W 16:49:56 10° NNW visible
14 Dec ? 04:25:29 10° NNE 04:29:28 33° E 04:33:20 10° SSE visible
14 Dec ? 06:02:00 10° N 06:05:53 31° WNW 06:09:39 10° SW visible
14 Dec ? 17:03:46 10° SW 17:07:30 23° W 17:11:12 10° NW visible
15 Dec ? 04:46:56 10° NNE 04:51:14 53° E 04:55:22 10° S visible
15 Dec ? 06:24:02 10° NNW 06:27:19 21° WNW 06:30:31 10° WSW visible
15 Dec ? 15:47:46 10° SSE 15:52:25 79° ENE 15:57:01 10° NNW visible
15 Dec ? 17:26:40 10° WSW 17:29:23 15° W 17:32:05 10° NW visible
